Alice Springs, Australia

6:01 PM ACST on October 23, 2019 (GMT +0930)
Alice Springs

Weather History for YBAS - August, 2019

Change the Weather History Date:

Thursday, August 22, 2019

  Actual Average Record
Temperature  
Mean Temperature 52 °F -  
Max Temperature 70 °F 78 °F 91 °F (2012)
Min Temperature 33 °F 48 °F 34 °F (2014)
Degree Days  
Heating Degree Days 14    
Growing Degree Days 2 (Base 50)    
Moisture  
Dew Point 23 °F    
Average Humidity 31    
Maximum Humidity 65    
Minimum Humidity 7    
Precipitation  
Precipitation 0.00 in 0.01 in - ()
Sea Level Pressure  
Sea Level Pressure 30.29 in    
Wind  
Wind Speed 5 mph ()    
Max Wind Speed 16 mph    
Max Gust Speed -    
Visibility 6.2 miles    
Events      
Averages and records for this station are not official NWS values.
T = Trace of Precipitation, MM = Missing Value Source: Averaged Metar Reports

Daily Weather History Graph

Daily Weather History Graph

Search for Another Location

Airport or City:

Astronomy

Aug. 22, 2019 Rise Set
Actual Time 6:55 AM ACST 6:19 PM ACST
Civil Twilight 6:32 AM ACST 6:43 PM ACST
Nautical Twilight 6:05 AM ACST 7:09 PM ACST
Astronomical Twilight 5:39 AM ACST 7:35 PM ACST
Moon 11:59 PM ACST (8/22) 10:53 AM ACST (8/22)
Length of Visible Light 12h 10m
Length of Day
11h 24m
Waning Gibbous, 65% of the Moon is Illuminated
Aug 22
Waning Gibbous
Aug 24
Last Quarter
Aug 30
New
Sep 6
First Quarter
Sep 14
Full

Hourly Weather History & Observations

Time (ACST) Temp. Windchill Dew Point Humidity Pressure Visibility Wind Dir Wind Speed Gust Speed Precip Events Conditions
12:00 AM 43 °F - 19 °F 25% 30.34 in - South 4.6 mph - -   Clear
12:30 AM 41 °F - 20 °F 30% 30.34 in - South 4.6 mph - -  
12:30 AM 41.0 °F 38.0 °F 21.2 °F 45% 30.33 in 6.2 mi South 4.6 mph - N/A   Unknown
1:00 AM 41.0 °F - 19.4 °F 42% 30.33 in 6.2 mi SSW 1.2 mph - N/A   Unknown
1:30 AM 39.2 °F - 19.4 °F 45% 30.33 in 6.2 mi Calm Calm - N/A   Unknown
2:00 AM 41.0 °F 38.0 °F 21.2 °F 45% 30.33 in 6.2 mi WSW 4.6 mph - N/A   Unknown
2:30 AM 39 °F - 20 °F 34% 30.31 in - SW 3.5 mph - -  
2:30 AM 39.2 °F 37.0 °F 19.4 °F 45% 30.33 in 6.2 mi SW 3.5 mph - N/A   Unknown
3:00 AM 38 °F - 21 °F 37% 30.31 in - Calm Calm - -   Clear
3:00 AM 39.2 °F - 21.2 °F 49% 30.33 in 6.2 mi Calm Calm - N/A   Unknown
3:30 AM 40 °F - 23 °F 38% 30.31 in - NNW 4.6 mph - -  
3:30 AM 39.2 °F 35.9 °F 23.0 °F 52% 30.33 in 6.2 mi NNW 4.6 mph - N/A   Unknown
4:00 AM 37.4 °F - 21.2 °F 52% 30.30 in 6.2 mi Calm Calm - N/A   Unknown
4:30 AM 37.4 °F - 21.2 °F 52% 30.30 in 6.2 mi Calm Calm - N/A   Unknown
5:00 AM 35.6 °F - 21.2 °F 56% 30.30 in 6.2 mi NE 1.2 mph - N/A   Unknown
5:30 AM 35.6 °F 32.8 °F 19.4 °F 52% 30.33 in 6.2 mi NW 3.5 mph - N/A   Unknown
6:00 AM 35 °F - 20 °F 41% 30.32 in - Calm Calm - -   Clear
6:00 AM 33.8 °F - 19.4 °F 56% 30.33 in 6.2 mi Calm Calm - N/A   Unknown
6:30 AM 34 °F - 22 °F 50% 30.32 in - Calm Calm - -  
6:30 AM 33.8 °F - 23.0 °F 65% 30.33 in 6.2 mi Calm Calm - N/A   Unknown
7:00 AM 33.8 °F 28.6 °F 19.4 °F 56% 30.33 in 6.2 mi WNW 5.8 mph - N/A   Unknown
7:30 AM 37.4 °F 33.8 °F 21.2 °F 52% 30.36 in 6.2 mi West 4.6 mph - N/A   Unknown
8:00 AM 42.8 °F - 21.2 °F 42% 30.36 in 6.2 mi Calm Calm - N/A   Unknown
8:30 AM 47 °F - 25 °F 29% 30.35 in - Calm Calm - -  
8:30 AM 46.4 °F - 24.8 °F 43% 30.36 in 6.2 mi Calm Calm - N/A   Unknown
9:00 AM 54 °F - 29 °F 27% 30.35 in - East 8.1 mph - -   Clear
9:30 AM 56 °F - 31 °F 27% 30.36 in - East 15.0 mph - -  
9:30 AM 55.4 °F - 32.0 °F 41% 30.36 in - East 15.0 mph - N/A   Clear
10:00 AM 59.0 °F - 32.0 °F 36% 30.36 in - East 15.0 mph - N/A   Clear
10:30 AM 60.8 °F - 30.2 °F 31% 30.36 in 6.2 mi East 12.7 mph - N/A   Unknown
11:00 AM 60.8 °F - 28.4 °F 29% 30.33 in 6.2 mi East 13.8 mph - N/A   Unknown
11:30 AM 65 °F - 26 °F 13% 30.32 in - East 16.1 mph - -  
11:30 AM 64.4 °F - 26.6 °F 24% 30.33 in 6.2 mi East 16.1 mph - N/A   Unknown
12:00 PM 64.4 °F - 24.8 °F 22% 30.30 in 6.2 mi East 15.0 mph - N/A   Unknown
12:30 PM 66 °F - 24 °F 11% 30.30 in - East 12.7 mph - -  
12:30 PM 66.2 °F - 23.0 °F 19% 30.30 in 6.2 mi East 12.7 mph - N/A   Unknown
1:00 PM 68.0 °F - 23.0 °F 18% 30.30 in 6.2 mi East 13.8 mph - N/A   Unknown
1:30 PM 68.0 °F - 23.0 °F 18% 30.27 in 6.2 mi East 11.5 mph - N/A   Unknown
2:00 PM 68.0 °F - 21.2 °F 17% 30.24 in 6.2 mi ENE 15.0 mph - N/A   Unknown
2:30 PM 68 °F - 22 °F 9% 30.23 in - ENE 10.4 mph - -  
2:30 PM 68.0 °F - 21.2 °F 17% 30.24 in 6.2 mi ENE 10.4 mph - N/A   Unknown
3:00 PM 69 °F - 20 °F 7% 30.22 in - ENE 10.4 mph - -   Clear
3:00 PM 69.8 °F - 19.4 °F 15% 30.24 in 6.2 mi ENE 10.4 mph - N/A   Unknown
3:30 PM 70 °F - 23 °F 9% 30.22 in - ESE 9.2 mph - -  
3:30 PM 69.8 °F - 23.0 °F 17% 30.21 in 6.2 mi ESE 9.2 mph - N/A   Unknown
4:00 PM 69.8 °F - 23.0 °F 17% 30.21 in 6.2 mi ESE 10.4 mph - N/A   Unknown
4:30 PM 69.8 °F - 23.0 °F 17% 30.21 in 6.2 mi SSE 5.8 mph - N/A   Unknown
5:00 PM 69.8 °F - 24.8 °F 18% 30.21 in 6.2 mi East 10.4 mph - N/A   Unknown
5:30 PM 69 °F - 24 °F 9% 30.22 in - East 10.4 mph - -  
5:30 PM 69.8 °F - 23.0 °F 17% 30.21 in 6.2 mi East 10.4 mph - N/A   Unknown
6:00 PM 67 °F - 25 °F 11% 30.22 in - ESE 10.4 mph - -   Clear
6:00 PM 68.0 °F - 24.8 °F 20% 30.24 in 6.2 mi ESE 10.4 mph - N/A   Unknown
6:30 PM 64 °F - 24 °F 12% 30.23 in - SE 6.9 mph - -  
7:30 PM 59.0 °F - 23.0 °F 25% 30.24 in 6.2 mi SE 6.9 mph - N/A   Unknown
8:00 PM 57.2 °F - 23.0 °F 27% 30.27 in 6.2 mi SE 6.9 mph - N/A   Unknown
8:30 PM 55 °F - 23 °F 17% 30.26 in - SE 5.8 mph - -  
8:30 PM 55.4 °F - 23.0 °F 29% 30.27 in 6.2 mi SE 5.8 mph - N/A   Unknown
9:00 PM 54 °F - 24 °F 19% 30.26 in - ESE 4.6 mph - -   Clear
9:00 PM 53.6 °F - 23.0 °F 30% 30.27 in 6.2 mi ESE 4.6 mph - N/A   Unknown
9:30 PM 52 °F - 23 °F 20% 30.26 in - ESE 4.6 mph - -  
9:30 PM 51.8 °F - 23.0 °F 33% 30.27 in 6.2 mi ESE 4.6 mph - N/A   Unknown
10:00 PM 51.8 °F - 23.0 °F 33% 30.27 in 6.2 mi Calm Calm - N/A   Unknown
10:30 PM 50.0 °F - 21.2 °F 32% 30.27 in 6.2 mi NE 1.2 mph - N/A   Unknown
11:00 PM 48.2 °F - 23.0 °F 37% 30.27 in 6.2 mi North 4.6 mph - N/A   Unknown
11:30 PM 49 °F - 24 °F 25% 30.26 in - NNW 4.6 mph - -  
11:30 PM 48.2 °F - 24.8 °F 40% 30.27 in 6.2 mi NNW 4.6 mph - N/A   Unknown